Weather History for Hagerstown, MD

Change the Weather History Date:

Thursday, October 4, 2012

  Actual Average Record
Temperature  
Mean Temperature 71 °F -  
Max Temperature 77 °F 66 °F 85 °F (2007)
Min Temperature 65 °F 47 °F 35 °F (1996)
Cooling Degree Days 6    
Month to date cooling degree days 10  
Year to date cooling degree days 1275  
Growing Degree Days 20 (Base 50)    
Moisture  
Dew Point 63 °F    
Average Humidity 75    
Maximum Humidity 100    
Minimum Humidity 50    
Precipitation  
Precipitation 0.03 in - - ()
Month to date precipitation 0.58  
Year to date precipitation 28.32  
Sea Level Pressure  
Sea Level Pressure 30.15 in    
Wind  
Wind Speed 6 mph (WNW)    
Max Wind Speed 13 mph    
Max Gust Speed 16 mph    
Visibility 5 miles    
Events Fog , Rain    
Averages and records for this station are not official NWS values.
T = Trace of Precipitation, MM = Missing Value Source: NWS Daily Summary

Daily Weather History Graph

Daily Weather History Graph

Search for Another Location

Airport:

Trip Planner

Search our weather history database for the weather conditions in past years. The results will help you decide how hot, cold, wet, or windy it might be!

Date:

Astronomy

Oct. 04, 2012 Rise Set
Actual Time 7:10 AM EDT 6:47 PM EDT
Civil Twilight 6:43 AM EDT 7:14 PM EDT
Nautical Twilight 6:12 AM EDT 7:45 PM EDT
Astronomical Twilight 5:40 AM EDT 8:17 PM EDT
Moon 9:22 PM EDT (10/4) 11:25 AM EDT (10/4)
Length of Visible Light 12h 31m
Length of Day
11h 37m
Waning Gibbous, 82% of the Moon is Illuminated
Oct 4
Waning Gibbous
Oct 8
Last Quarter
Oct 15
New
Oct 21
First Quarter
Oct 29
Full

Hourly Weather History & Observations

Time (EDT) Temp. Dew Point Humidity Pressure Visibility Wind Dir Wind Speed Gust Speed Precip Events Conditions
12:53 AM 69.1 °F 64.9 °F 87% 30.15 in 10.0 mi Calm Calm - 0.00 in   Clear
1:53 AM 69.1 °F 66.0 °F 90% 30.15 in 10.0 mi ENE 3.5 mph - N/A   Partly Cloudy
2:53 AM 66.9 °F 66.0 °F 97% 30.14 in 6.0 mi NNW 3.5 mph - N/A   Mostly Cloudy
3:53 AM 66.0 °F 66.0 °F 100% 30.14 in 6.0 mi WNW 3.5 mph - 0.00 in Rain Light Rain
4:53 AM 66.0 °F 66.0 °F 100% 30.14 in 6.0 mi ENE 3.5 mph - 0.01 in   Partly Cloudy
5:20 AM 66.2 °F 66.2 °F 100% 30.14 in 1.8 mi NW 5.8 mph - 0.00 in Rain Light Rain
5:25 AM 66.2 °F 66.2 °F 100% 30.14 in 0.8 mi WNW 5.8 mph - 0.01 in Rain Light Rain
5:48 AM 66.2 °F 66.2 °F 100% 30.14 in 2.0 mi WNW 5.8 mph - 0.02 in Rain Light Rain
5:49 AM 66.0 °F 66.0 °F 100% 30.16 in 2.0 mi WNW 5.8 mph - 0.02 in Rain Light Rain
6:09 AM 66.2 °F 66.2 °F 100% 30.12 in 4.0 mi NE 6.9 mph - 0.00 in Rain Light Rain
6:34 AM 66.2 °F 66.2 °F 100% 30.12 in 3.0 mi East 5.8 mph - 0.00 in   Scattered Clouds
6:53 AM 66.0 °F 66.0 °F 100% 30.14 in 3.0 mi Calm Calm - 0.00 in   Scattered Clouds
7:10 AM 64.4 °F 64.4 °F 100% 30.13 in 2.0 mi WNW 4.6 mph - N/A   Scattered Clouds
7:17 AM 64.4 °F 64.4 °F 100% 30.14 in 0.5 mi WNW 3.5 mph - N/A Fog Fog
7:53 AM 64.9 °F 64.9 °F 100% 30.16 in 0.5 mi NW 5.8 mph - N/A Fog Fog
8:00 AM 64.4 °F 64.4 °F 100% 30.14 in 0.2 mi WNW 5.8 mph - N/A Fog Fog
8:20 AM 66.2 °F 66.2 °F 100% 30.14 in 0.2 mi Calm Calm - N/A Fog Fog
8:48 AM 66.2 °F 66.2 °F 100% 30.13 in 0.2 mi North 3.5 mph - N/A Fog Fog
8:53 AM 66.0 °F 66.0 °F 100% 30.17 in 0.2 mi Calm Calm - N/A Fog Fog
9:06 AM 66.2 °F 66.2 °F 100% 30.15 in 1.0 mi Calm Calm - N/A   Mist
9:14 AM 66.2 °F 66.2 °F 100% 30.16 in 0.2 mi Calm Calm - N/A Fog Fog
9:36 AM 66.2 °F 66.2 °F 100% 30.15 in 0.8 mi Calm Calm - N/A   Mist
9:46 AM 66.2 °F 66.2 °F 100% 30.14 in 1.2 mi Calm Calm - N/A   Overcast
9:53 AM 66.9 °F 66.9 °F 100% 30.17 in 1.5 mi Calm Calm - N/A   Overcast
10:06 AM 68.0 °F 68.0 °F 100% 30.15 in 2.0 mi Calm Calm - N/A   Overcast
10:53 AM 68.0 °F 68.0 °F 100% 30.18 in 2.0 mi SW 4.6 mph - N/A   Mostly Cloudy
11:00 AM 68.0 °F 66.2 °F 94% 30.17 in 4.0 mi Variable 4.6 mph - N/A   Overcast
11:14 AM 68.0 °F 68.0 °F 100% 30.17 in 4.0 mi West 3.5 mph - N/A   Overcast
11:53 AM 71.1 °F 68.0 °F 90% 30.18 in 6.0 mi West 4.6 mph - N/A   Scattered Clouds
12:53 PM 73.0 °F 66.0 °F 79% 30.17 in 10.0 mi NW 6.9 mph - N/A   Scattered Clouds
1:53 PM 75.0 °F 60.1 °F 60% 30.15 in 10.0 mi NW 10.4 mph - N/A   Partly Cloudy
2:53 PM 77.0 °F 60.1 °F 56% 30.14 in 10.0 mi NW 11.5 mph - N/A   Mostly Cloudy
3:53 PM 75.9 °F 57.0 °F 52% 30.14 in 10.0 mi WNW 11.5 mph - N/A   Partly Cloudy
4:53 PM 77.0 °F 57.0 °F 50% 30.13 in 10.0 mi WNW 10.4 mph - N/A   Mostly Cloudy
6:53 PM 71.1 °F 55.0 °F 57% 30.14 in 10.0 mi West 4.6 mph - N/A   Clear
7:53 PM 69.1 °F 53.1 °F 57% 30.14 in 10.0 mi Calm Calm - N/A   Clear
8:53 PM 66.9 °F 52.0 °F 59% 30.15 in 10.0 mi Calm Calm - N/A   Clear
9:53 PM 64.9 °F 52.0 °F 63% 30.16 in 10.0 mi Calm Calm - N/A   Clear
10:53 PM 64.9 °F 53.1 °F 65% 30.17 in 10.0 mi SW 3.5 mph - N/A   Clear
11:53 PM 64.9 °F 52.0 °F 63% 30.16 in 10.0 mi SW 4.6 mph - N/A   Clear